{"data":{"norad_id":62951,"intl_designator":"2025-029D","name":"STARLINK-32875","alt_names":[],"object_type":"PAYLOAD","status":"ACTIVE","operator":null,"country":"US","launch_date":"2025-02-11","launch_site_code":"AFWTR","launch_vehicle":null,"mission":null,"orbit_class":"UNKNOWN","rcs_meters":null,"size_class":null,"mass_kg":null,"dimensions":null,"purposes":["comms"],"wikipedia_slug":null,"has_3d_model":false,"image_url":null,"decayed_at":null,"tle_current":{"epoch":"2026-09-21T16:25:51.111840Z","epoch_age_seconds":63093,"freshness":"FRESH","line1":"1 62951U 25029D   26264.68461935  .00015915  00000+0  48102-3 0  9991","line2":"2 62951  53.1600  35.8161 0000998 105.1234 254.9879 15.34408595 91420","mean_motion":15.34408595,"eccentricity":9.98e-5,"inclination_deg":53.16,"raan_deg":35.8161,"arg_perigee_deg":105.1234,"mean_anomaly_deg":254.9879,"bstar":0.00048102,"rev_number":9142,"period_min":93.847232392491,"perigee_km":461.99498086856,"apogee_km":463.36040748152,"semimajor_km":6840.814694175,"source":"CELESTRAK","updated_at":"2026-09-22T09:00:49.711573Z"}}}